Tracking 25710 objects as of 5-Jul-2022
HD Live streaming from Space Station
objects crossing your sky now

FENGYUN 1C DEB

Track FENGYUN 1C DEB now!
10-day predictions


NORAD ID: 36679
Int'l Code: 1999-025DYZ
Perigee: 828.7 km
Apogee: 963.8 km
Inclination: 98.8 °
Period: 102.8 minutes
Semi major axis: 7267 km
RCS: 0.0078 m2 (small)
Launch date: May 10, 1999
Source: People's Republic of China (PRC)
Launch site: Taiyaun Space Center, China (TSC)

Note: This is SATELLITE DEBRIS
aabbcc
Your satellite tracking list
Your tracking list is empty




NASA's NSSDC Master Catalog

Two Line Element Set (TLE):
1 36679U 99025DYZ 22181.32562389  .00000374  00000-0  26648-3 0  9991
2 36679  98.8448 199.5024 0092909  13.3783 346.9815 14.01349984 68630
Source of the keplerian elements: AFSPC